sat.trackr.live / text

‹ back to catalog

STARLINK-35413

NORAD 65886 · 2025-224E

PAYLOAD ACTIVE UNKNOWN

§ Identity

Operator
Country
US
Launch date
2025-10-07
Launch site
AFETR
Launch vehicle
Mass (kg)
RCS (m²)

Purposes: comms

External: N2YO · Heavens-Above · Gunter

§ Orbital elements

Epoch: 2026-09-20T11:34:29.272800Z

Period
93.85 min
Inclination
53.1563°
Eccentricity
0.0000710
Mean motion
15.34373163 rev/d
Perigee alt
462.3 km
Apogee alt
463.3 km
Semi-major
6,840.9 km
B*
6.0383e-4
RAAN
181.9031°
Arg perigee
130.8341°
Mean anomaly
229.2723°
Rev number
5,466

§ Raw data

STARLINK-354131 65886U 25224E   26263.48228325  .00020063  00000+0  60383-3 0  99942 65886  53.1563 181.9031 0000710 130.8341 229.2723 15.34373163 54663

JSON: /api/v1/satellites/65886 · /tle

For live sub-satellite position, see the globe view (requires WebGL).

§ Visibility from observer

Set your observer location to see the next 7 days of passes ≥ 10°. The values pass through the URL so the page stays shareable.

No JS? Fill the form by hand. The geolocation button needs JavaScript.